Flag for U.S.A. Weather past 2 weeks in Beaumont, Texas, U.S.A.

Now
80 °F

Clear.


Feels Like: 85 °F
Forecast: 78 / 92 °F
Wind: N/A

Location: Jefferson County Airport

Current Time: Jul 6, 2015 at 12:10:16 AM

Latest Report: Jul 5, 2015 at 10:53 PM


Visibility: 10 mi

Pressure: 30.07 "Hg

Humidity: 87%

Dew point: 76 °F

Location of BeaumontLocation

Historic Weather in Beaumont — Graph

°F

Beaumont temperature yesterday

Maximum temperature yesterday: 92 °F (at 1:53 PM)
Minimum temperature yesterday: 78 °F (at 12:53 AM)
Average temperature yesterday: 84 °F

Past Weeks' High & Low Weather Summary

 TemperatureHumidityPressure
High93 °F (Jun 23, 1:53 PM)100% (Jun 29, 3:53 AM)30.16 "Hg (Jun 29, 3:53 AM)
Low70 °F (Jul 1, 12:53 AM)49% (Jun 23, 2:53 PM)29.94 "Hg (Jun 26, 6:53 PM)
Average82 °F80%30.04 "Hg
* Reported Jun 21 12:53 AM — Jul 5 10:53 PM, Beaumont, Weather by CustomWeather, © 2015

Note: Actual official high and low records may vary slightly from our data, if they occured in-between our weather recording intervals... More about our weather records

Advertising

Beaumont weather history for previous 24 hours

 ConditionsComfort  
Time TempWeatherWind HumidityBarometerVisibility
10:53 PM
Sun, Jul 5
80 °FClear.N/A87%30.07 "Hg10 mi
9:53 PM81 °FClear.8 mph85%30.06 "Hg10 mi
8:53 PM81 °FPassing clouds.6 mph85%30.05 "Hg10 mi
7:53 PM83 °FSunny.7 mph77%30.04 "Hg10 mi
6:53 PM86 °FSunny.12 mph70%30.03 "Hg10 mi
5:53 PM88 °FPassing clouds.10 mph63%30.01 "Hg10 mi
4:53 PM89 °FScattered clouds.10 mph65%30.02 "Hg10 mi
3:53 PM90 °FPartly sunny.10 mph63%30.05 "Hg10 mi
2:53 PM92 °FPartly sunny.13 mph58%30.05 "Hg10 mi
1:53 PM92 °FPartly sunny.9 mph60%30.07 "Hg10 mi
12:53 PM91 °FScattered clouds.12 mph64%30.08 "Hg10 mi
11:53 AM91 °FPartly sunny.12 mph61%30.09 "Hg10 mi
10:53 AM89 °FPassing clouds.13 mph65%30.08 "Hg10 mi
9:53 AM87 °FPassing clouds.10 mph77%30.08 "Hg10 mi
8:53 AM85 °FPartly sunny.8 mph86%30.07 "Hg10 mi
7:53 AM82 °FPassing clouds.6 mph94%30.07 "Hg10 mi
6:53 AM78 °FClear.3 mph96%30.06 "Hg7 mi
5:53 AM78 °FClear.No wind93%30.06 "Hg9 mi
4:53 AM79 °FLight rain. Clear.No wind94%30.04 "Hg10 mi
3:53 AM78 °FClear.3 mph96%30.03 "Hg10 mi
2:53 AM79 °FClear.3 mph94%30.03 "Hg10 mi
1:53 AM79 °FClear.6 mph94%30.02 "Hg10 mi
12:53 AM78 °FClear.6 mph96%30.03 "Hg8 mi
Weather by CustomWeather, © 2015

See weather overviewHow to use our weather pages